Artesia, NM

9:23 PM MST on February 08, 2016 (GMT -0700)
Artesia Municipal

Weather History for KATS - February, 2013

Change the Weather History Date:

Wednesday, February 6, 2013

  Actual Average (KROW) Record (KROW)
Temperature  
Mean Temperature 50 °F 44 °F  
Max Temperature 73 °F 59 °F 84 °F (2009)
Min Temperature 28 °F 29 °F 3 °F (1956)
Degree Days  
Heating Degree Days 14 21  
Month to date heating degree days 130  
Since 1 July heating degree days 2296  
Cooling Degree Days 0 0  
Month to date cooling degree days 0  
Year to date cooling degree days 0  
Moisture  
Dew Point 18 °F    
Average Humidity 28    
Maximum Humidity 47    
Minimum Humidity 15    
Precipitation  
Precipitation 0.00 in 0.01 in 0.91 in (1905)
Month to date precipitation 0.08  
Year to date precipitation 0.46  
Sea Level Pressure  
Sea Level Pressure 29.89 in    
Wind  
Wind Speed 9 mph (WSW)    
Max Wind Speed 28 mph    
Max Gust Speed 33 mph    
Visibility 10 miles    
Events      
T = Trace of Precipitation, MM = Missing Value Source: NWS Daily Summary

Daily Weather History Graph

Daily Weather History Graph

Search for Another Location

Airport or City:

Trip Planner

Search our weather history database for the weather conditions in past years. The results will help you decide how hot, cold, wet, or windy it might be!

Date:

Astronomy

Feb. 06, 2013 Rise Set
Actual Time 6:48 AM MST 5:35 PM MST
Civil Twilight 6:23 AM MST 6:01 PM MST
Nautical Twilight 5:54 AM MST 6:30 PM MST
Astronomical Twilight 5:25 AM MST 6:59 PM MST
Moon 3:29 AM MST (2/6) 2:02 PM MST (2/6)
Length of Visible Light 11h 37m
Length of Day
10h 46m
Waning Crescent, 16% of the Moon is Illuminated
Feb 6
Waning Crescent
Feb 10
New
Feb 17
First Quarter
Feb 25
Full
Mar 4
Last Quarter

Hourly Weather History & Observations

Time (MST) Temp. Windchill Dew Point Humidity Pressure Visibility Wind Dir Wind Speed Gust Speed Precip Events Conditions
12:15 AM 39.2 °F - 10.4 °F 31% 29.98 in 10.0 mi Calm Calm - N/A   Clear
12:35 AM 37.4 °F 34.9 °F 10.4 °F 33% 29.99 in 10.0 mi NW 3.5 mph - N/A   Clear
12:55 AM 37.4 °F 32.1 °F 10.4 °F 33% 29.98 in 10.0 mi West 6.9 mph - N/A   Clear
1:35 AM 35.6 °F 28.6 °F 10.4 °F 35% 29.97 in 10.0 mi West 9.2 mph - N/A   Clear
1:55 AM 35.6 °F 28.6 °F 10.4 °F 35% 29.96 in 10.0 mi West 9.2 mph - N/A   Clear
2:15 AM 35.6 °F 28.6 °F 10.4 °F 35% 29.96 in 10.0 mi West 9.2 mph - N/A   Clear
2:35 AM 35.6 °F 32.8 °F 10.4 °F 35% 29.96 in 10.0 mi NW 3.5 mph - N/A   Clear
2:55 AM 35.6 °F 32.8 °F 10.4 °F 35% 29.95 in 10.0 mi NW 3.5 mph - N/A   Clear
3:15 AM 32.0 °F 24.8 °F 10.4 °F 41% 29.95 in 10.0 mi WNW 8.1 mph - N/A   Clear
3:35 AM 33.8 °F 29.6 °F 10.4 °F 38% 29.95 in 10.0 mi West 4.6 mph - N/A   Clear
3:55 AM 32.0 °F 25.6 °F 10.4 °F 41% 29.94 in 10.0 mi West 6.9 mph - N/A   Clear
4:15 AM 32.0 °F 27.5 °F 12.2 °F 44% 29.94 in 10.0 mi WNW 4.6 mph - N/A   Clear
4:35 AM 33.8 °F 27.7 °F 12.2 °F 41% 29.94 in 10.0 mi West 6.9 mph - N/A   Clear
5:15 AM 30.2 °F 24.3 °F 10.4 °F 44% 29.94 in 10.0 mi North 5.8 mph - N/A   Clear
5:35 AM 28.4 °F 21.2 °F 10.4 °F 47% 29.93 in 10.0 mi NNW 6.9 mph - N/A   Clear
5:55 AM 30.2 °F - 10.4 °F 44% 29.93 in 10.0 mi Calm Calm - N/A   Clear
6:15 AM 28.4 °F - 10.4 °F 47% 29.93 in 10.0 mi Calm Calm - N/A   Clear
6:35 AM 28.4 °F 23.3 °F 10.4 °F 47% 29.95 in 10.0 mi WNW 4.6 mph - N/A   Clear
6:55 AM 30.2 °F 26.7 °F 10.4 °F 44% 29.95 in 10.0 mi NNE 3.5 mph - N/A   Clear
7:15 AM 32.0 °F - 10.4 °F 41% 29.95 in 10.0 mi Calm Calm - N/A   Clear
7:35 AM 33.8 °F - 12.2 °F 41% 29.95 in 10.0 mi Calm Calm - N/A   Clear
7:55 AM 37.4 °F - 10.4 °F 33% 29.96 in 10.0 mi Calm Calm - N/A   Clear
8:15 AM 39.2 °F 37.0 °F 10.4 °F 31% 29.96 in 10.0 mi North 3.5 mph - N/A   Clear
8:35 AM 41.0 °F - 10.4 °F 29% 29.96 in 10.0 mi Calm Calm - N/A   Clear
8:55 AM 44.6 °F - 12.2 °F 27% 29.96 in 10.0 mi Calm Calm - N/A   Clear
9:35 AM 48.2 °F - 14.0 °F 25% 29.95 in 10.0 mi Calm Calm - N/A   Clear
9:55 AM 50.0 °F - 15.8 °F 26% 29.95 in 10.0 mi SSE 4.6 mph - N/A   Clear
10:15 AM 53.6 °F - 17.6 °F 24% 29.94 in 10.0 mi SE 6.9 mph - N/A   Clear
10:35 AM 55.4 °F - 17.6 °F 23% 29.94 in 10.0 mi SSE 6.9 mph - N/A   Clear
10:55 AM 57.2 °F - 19.4 °F 23% 29.92 in 10.0 mi SE 5.8 mph - N/A   Clear
11:15 AM 62.6 °F - 23.0 °F 22% 29.91 in 10.0 mi SE 9.2 mph - N/A   Clear
11:35 AM 68.0 °F - 28.4 °F 23% 29.89 in 10.0 mi SW 21.9 mph 29.9 mph N/A   Clear
11:55 AM 69.8 °F - 28.4 °F 21% 29.87 in 10.0 mi SW 24.2 mph 29.9 mph N/A   Clear
12:15 PM 71.6 °F - 28.4 °F 20% 29.86 in 10.0 mi WSW 25.3 mph 31.1 mph N/A   Clear
12:35 PM 71.6 °F - 26.6 °F 19% 29.84 in 10.0 mi WSW 24.2 mph 33.4 mph N/A   Clear
12:55 PM 71.6 °F - 26.6 °F 19% 29.83 in 10.0 mi SW 23.0 mph 31.1 mph N/A   Clear
1:15 PM 71.6 °F - 24.8 °F 17% 29.81 in 10.0 mi WSW 27.6 mph 33.4 mph N/A   Clear
1:35 PM 73.4 °F - 23.0 °F 15% 29.81 in 10.0 mi West 21.9 mph 26.5 mph N/A   Clear
1:55 PM 71.6 °F - 24.8 °F 17% 29.80 in 10.0 mi West 21.9 mph 32.2 mph N/A   Clear
2:15 PM 71.6 °F - 24.8 °F 17% 29.80 in 10.0 mi WSW 23.0 mph 31.1 mph N/A   Clear
2:35 PM 71.6 °F - 23.0 °F 16% 29.80 in 10.0 mi WSW 24.2 mph 29.9 mph N/A   Clear
2:55 PM 71.6 °F - 23.0 °F 16% 29.80 in 10.0 mi WSW 21.9 mph 27.6 mph N/A   Clear
3:15 PM 71.6 °F - 23.0 °F 16% 29.79 in 10.0 mi WSW 23.0 mph 28.8 mph N/A   Clear
3:35 PM 69.8 °F - 24.8 °F 18% 29.79 in 10.0 mi WSW 20.7 mph 27.6 mph N/A   Clear
3:55 PM 71.6 °F - 23.0 °F 16% 29.79 in 10.0 mi SW 19.6 mph 28.8 mph N/A   Clear
4:15 PM 68.0 °F - 23.0 °F 18% 29.80 in 10.0 mi SW 23.0 mph 28.8 mph N/A   Clear
4:35 PM 68.0 °F - 19.4 °F 16% 29.80 in 10.0 mi SW 20.7 mph 25.3 mph N/A   Clear
4:55 PM 66.2 °F - 17.6 °F 15% 29.81 in 10.0 mi SW 17.3 mph 20.7 mph N/A   Clear
5:15 PM 66.2 °F - 19.4 °F 17% 29.81 in 10.0 mi SW 16.1 mph 21.9 mph N/A   Clear
5:35 PM 64.4 °F - 19.4 °F 18% 29.83 in 10.0 mi SW 13.8 mph - N/A   Clear
5:55 PM 62.6 °F - 21.2 °F 20% 29.83 in 10.0 mi WSW 13.8 mph - N/A   Clear
6:15 PM 62.6 °F - 21.2 °F 20% 29.84 in 10.0 mi SW 13.8 mph - N/A   Clear
6:35 PM 62.6 °F - 23.0 °F 22% 29.84 in 10.0 mi WSW 16.1 mph - N/A   Clear
6:55 PM 60.8 °F - 23.0 °F 23% 29.85 in 10.0 mi WSW 15.0 mph - N/A   Clear
7:15 PM 60.8 °F - 23.0 °F 23% 29.85 in 10.0 mi WSW 17.3 mph 20.7 mph N/A   Clear
7:35 PM 60.8 °F - 23.0 °F 23% 29.86 in 10.0 mi WSW 16.1 mph - N/A   Clear
7:55 PM 59.0 °F - 23.0 °F 25% 29.86 in 10.0 mi WSW 17.3 mph - N/A   Clear
8:15 PM 59.0 °F - 23.0 °F 25% 29.87 in 10.0 mi WSW 20.7 mph - N/A   Clear
8:35 PM 59.0 °F - 23.0 °F 25% 29.88 in 10.0 mi WSW 16.1 mph - N/A   Clear
8:55 PM 59.0 °F - 23.0 °F 25% 29.88 in 10.0 mi WSW 16.1 mph - N/A   Clear
9:15 PM 57.2 °F - 23.0 °F 27% 29.88 in 10.0 mi WSW 13.8 mph - N/A   Clear
9:35 PM 57.2 °F - 23.0 °F 27% 29.89 in 10.0 mi WSW 15.0 mph - N/A   Clear
9:55 PM 57.2 °F - 23.0 °F 27% 29.89 in 10.0 mi WSW 15.0 mph - N/A   Clear
10:15 PM 59.0 °F - 24.8 °F 27% 29.89 in 10.0 mi WSW 16.1 mph - N/A   Clear
10:35 PM 59.0 °F - 24.8 °F 27% 29.90 in 10.0 mi WSW 15.0 mph - N/A   Clear
10:55 PM 57.2 °F - 24.8 °F 29% 29.90 in 10.0 mi West 13.8 mph - N/A   Clear
11:35 PM 50.0 °F - 24.8 °F 37% 29.91 in 10.0 mi WNW 8.1 mph - N/A   Clear
11:55 PM 50.0 °F - 24.8 °F 37% 29.91 in 10.0 mi West 9.2 mph - N/A   Clear